| time (UTC) | temp C | wind direction | speed KPH | gust KPH | rain 1hr cm | rain 24hr cm | rain mn cm | humidity % | barometer mb |
| 20260505194747 | 9 | 125 | 4.8 | 0.0 | 0.00 | 0.00 | 0.00 | 99 | 1024.6 |
| 20260505193747 | 9 | 240 | 0.0 | 0.0 | 0.00 | 0.00 | 0.00 | 99 | 1024.6 |
| 20260505192747 | 9 | 195 | 1.6 | 0.0 | 0.00 | 0.00 | 0.00 | 99 | 1024.5 |
| 20260505191747 | 9 | 182 | 0.0 | 0.0 | 0.00 | 0.00 | 0.00 | 98 | 1024.5 |
| 20260505190747 | 9 | 129 | 4.8 | 0.0 | 0.00 | 0.00 | 0.00 | 98 | 1024.5 |
| 20260505185748 | 9 | 202 | 0.0 | 0.0 | 0.00 | 0.00 | 0.00 | 98 | 1024.2 |
| 20260505184748 | 10 | 159 | 1.6 | 0.0 | 0.00 | 0.00 | 0.00 | 98 | 1024.3 |
| 20260505183748 | 10 | 246 | 0.0 | 0.0 | 0.00 | 0.00 | 0.00 | 98 | 1024.3 |
| 20260505182748 | 10 | 293 | 0.0 | 0.0 | 0.00 | 0.00 | 0.00 | 97 | 1024.2 |
| 20260505181748 | 10 | 186 | 0.0 | 0.0 | 0.00 | 0.00 | 0.00 | 97 | 1024.1 |
| 20260505180749 | 10 | 34 | 0.0 | 0.0 | 0.00 | 0.00 | 0.00 | 97 | 1023.8 |
| 20260505175748 | 11 | 136 | 6.4 | 0.0 | 0.00 | 0.00 | 0.00 | 97 | 1023.6 |
| 20260505174748 | 11 | 148 | 11.3 | 0.0 | 0.00 | 0.00 | 0.00 | 97 | 1023.8 |
| 20260505173747 | 11 | 117 | 6.4 | 0.0 | 0.00 | 0.00 | 0.00 | 96 | 1023.6 |
| 20260505172747 | 11 | 154 | 0.0 | 0.0 | 0.00 | 0.00 | 0.00 | 96 | 1023.5 |
| 20260505171748 | 11 | 150 | 0.0 | 0.0 | 0.00 | 0.00 | 0.00 | 96 | 1023.7 |
| 20260505170751 | 11 | 128 | 3.2 | 0.0 | 0.00 | 0.00 | 0.00 | 95 | 1023.8 |
| 20260505165748 | 11 | 148 | 0.0 | 0.0 | 0.00 | 0.00 | 0.00 | 96 | 1023.8 |
| 20260505163748 | 11 | 352 | 3.2 | 0.0 | 0.00 | 0.00 | 0.00 | 95 | 1024.0 |
| 20260505162747 | 11 | 158 | 0.0 | 0.0 | 0.00 | 0.00 | 0.00 | 96 | 1024.2 |
| 20260505161747 | 11 | 144 | 1.6 | 0.0 | 0.00 | 0.00 | 0.00 | 96 | 1024.1 |
| 20260505160748 | 10 | 135 | 0.0 | 0.0 | 0.00 | 0.00 | 0.00 | 97 | 1024.2 |
| 20260505152748 | 10 | 19 | 0.0 | 0.0 | 0.00 | 0.00 | 0.00 | 98 | 1024.5 |
| 20260505151747 | 10 | 299 | 0.0 | 0.0 | 0.00 | 0.00 | 0.00 | 98 | 1024.6 |
| 20260505150747 | 10 | 269 | 0.0 | 0.0 | 0.00 | 0.00 | 0.00 | 98 | 1024.4 |
| 20260505123748 | 11 | 322 | 1.6 | 0.0 | 0.00 | 0.00 | 0.00 | 91 | 1024.5 |
| 20260505122748 | 11 | 337 | 3.2 | 0.0 | 0.00 | 0.00 | 0.00 | 91 | 1024.7 |
| 20260505121748 | 11 | 336 | 4.8 | 0.0 | 0.00 | 0.00 | 0.00 | 90 | 1024.4 |
| 20260505120748 | 11 | 301 | 3.2 | 0.0 | 0.00 | 0.00 | 0.00 | 90 | 1024.5 |
| 20260505115748 | 11 | 283 | 4.8 | 0.0 | 0.00 | 0.00 | 0.00 | 91 | 1024.4 |
| 20260505114748 | 11 | 34 | 0.0 | 0.0 | 0.00 | 0.00 | 0.00 | 89 | 1024.6 |
| 20260505113747 | 11 | 16 | 8.0 | 0.0 | 0.00 | 0.00 | 0.00 | 88 | 1024.5 |
| 20260505112747 | 11 | 279 | 4.8 | 0.0 | 0.00 | 0.00 | 0.00 | 88 | 1024.6 |
| 20260505111747 | 11 | 327 | 8.0 | 0.0 | 0.00 | 0.00 | 0.00 | 87 | 1024.4 |
| 20260505110747 | 11 | 40 | 4.8 | 0.0 | 0.00 | 0.00 | 0.00 | 88 | 1024.4 |
| 20260505101747 | 11 | 273 | 4.8 | 0.0 | 0.00 | 0.00 | 0.00 | 87 | 1024.6 |
| 20260505100748 | 11 | 230 | 0.0 | 0.0 | 0.00 | 0.00 | 0.00 | 87 | 1024.7 |
| 20260505095748 | 11 | 169 | 4.8 | 0.0 | 0.00 | 0.00 | 0.00 | 87 | 1024.9 |
| 20260505094747 | 10 | 185 | 0.0 | 0.0 | 0.00 | 0.00 | 0.00 | 88 | 1024.9 |
| 20260505093748 | 10 | 122 | 0.0 | 0.0 | 0.00 | 0.00 | 0.00 | 89 | 1024.8 |
| 20260505092747 | 10 | 243 | 0.0 | 0.0 | 0.00 | 0.00 | 0.00 | 91 | 1025.0 |
| 20260505091747 | 11 | 156 | 3.2 | 0.0 | 0.00 | 0.00 | 0.00 | 90 | 1024.9 |
| 20260505090747 | 11 | 135 | 0.0 | 0.0 | 0.00 | 0.00 | 0.00 | 89 | 1024.7 |
| 20260505085748 | 10 | 290 | 0.0 | 0.0 | 0.00 | 0.00 | 0.00 | 88 | 1024.9 |
| 20260505083748 | 10 | 291 | 4.8 | 0.0 | 0.00 | 0.00 | 0.00 | 88 | 1024.6 |
| 20260505082748 | 10 | 0 | 4.8 | 0.0 | 0.00 | 0.00 | 0.00 | 90 | 1024.6 |
| 20260505081747 | 10 | 316 | 9.7 | 0.0 | 0.00 | 0.00 | 0.00 | 92 | 1025.0 |
| 20260505080748 | 9 | 293 | 6.4 | 0.0 | 0.00 | 0.00 | 0.00 | 96 | 1025.0 |
| 20260505075747 | 9 | 32 | 0.0 | 0.0 | 0.00 | 0.00 | 0.00 | 97 | 1025.4 |
| 20260505074747 | 9 | 69 | 3.2 | 0.0 | 0.00 | 0.00 | 0.00 | 97 | 1025.1 |
| 20260505073748 | 9 | 173 | 0.0 | 0.0 | 0.00 | 0.00 | 0.00 | 97 | 1025.4 |
| 20260505072749 | 9 | 279 | 0.0 | 0.0 | 0.00 | 0.00 | 0.00 | 97 | 1025.1 |
| 20260505071749 | 8 | 269 | 4.8 | 0.0 | 0.00 | 0.00 | 0.00 | 98 | 1025.1 |
| 20260505070747 | 9 | 48 | 0.0 | 0.0 | 0.00 | 0.00 | 0.00 | 98 | 1025.2 |
| 20260505065747 | 9 | 355 | 1.6 | 0.0 | 0.00 | 0.00 | 0.00 | 99 | 1025.0 |
| 20260505064748 | 9 | 284 | 6.4 | 0.0 | 0.00 | 0.00 | 0.00 | 99 | 1025.0 |
| 20260505063749 | 8 | 123 | 0.0 | 0.0 | 0.00 | 0.00 | 0.00 | 99 | 1025.0 |
| 20260505062748 | 8 | 157 | 3.2 | 0.0 | 0.00 | 0.00 | 0.00 | 99 | 1025.1 |
| 20260505061749 | 8 | 147 | 3.2 | 0.0 | 0.00 | 0.00 | 0.00 | 99 | 1025.2 |
| 20260505060749 | 8 | 100 | 1.6 | 0.0 | 0.00 | 0.00 | 0.00 | 99 | 1025.0 |
| 20260505055749 | 8 | 186 | 0.0 | 0.0 | 0.00 | 0.00 | 0.00 | 99 | 1025.1 |
| 20260505054745 | 8 | 137 | 0.0 | 0.0 | 0.00 | 0.00 | 0.00 | 99 | 1024.9 |
| 20260505053749 | 8 | 284 | 0.0 | 0.0 | 0.00 | 0.00 | 0.00 | 99 | 1025.0 |
| 20260505052749 | 8 | 168 | 0.0 | 0.0 | 0.00 | 0.00 | 0.00 | 99 | 1024.9 |
| 20260505051749 | 8 | 321 | 0.0 | 0.0 | 0.00 | 0.00 | 0.00 | 99 | 1024.6 |
| 20260505050749 | 8 | 55 | 3.2 | 0.0 | 0.00 | 0.00 | 0.00 | 99 | 1024.9 |
| 20260505041751 | 8 | 114 | 0.0 | 0.0 | 0.00 | 0.00 | 0.00 | 99 | 1025.0 |
| 20260505040749 | 8 | 27 | 4.8 | 0.0 | 0.00 | 0.00 | 0.00 | 99 | 1025.2 |
| 20260505035750 | 8 | 213 | 3.2 | 0.0 | 0.00 | 0.00 | 0.00 | 99 | 1024.6 |
| 20260505034750 | 8 | 232 | 3.2 | 0.0 | 0.00 | 0.00 | 0.00 | 99 | 1024.0 |
| 20260505033750 | 8 | 1 | 1.6 | 0.0 | 0.00 | 0.00 | 0.00 | 99 | 1025.6 |
| 20260505032750 | 8 | 135 | 0.0 | 0.0 | 0.00 | 0.00 | 0.00 | 99 | 1026.0 |
| 20260505031749 | 8 | 144 | 0.0 | 0.0 | 0.00 | 0.00 | 0.00 | 99 | 1026.0 |
| 20260505030749 | 8 | 122 | 3.2 | 0.0 | 0.00 | 0.00 | 0.00 | 99 | 1026.1 |
| 20260505025749 | 8 | 102 | 0.0 | 0.0 | 0.00 | 0.00 | 0.00 | 99 | 1026.1 |
| 20260505024750 | 8 | 185 | 0.0 | 0.0 | 0.00 | 0.00 | 0.00 | 99 | 1026.1 |
| 20260505023748 | 8 | 99 | 0.0 | 0.0 | 0.00 | 0.00 | 0.00 | 99 | 1025.9 |
| 20260505022749 | 8 | 143 | 3.2 | 0.0 | 0.00 | 0.00 | 0.00 | 99 | 1026.1 |
| 20260505021749 | 8 | 288 | 1.6 | 0.0 | 0.00 | 0.00 | 0.00 | 99 | 1026.0 |
| 20260505020749 | 8 | 134 | 3.2 | 0.0 | 0.00 | 0.00 | 0.00 | 99 | 1025.8 |
| 20260505015748 | 8 | 127 | 0.0 | 0.0 | 0.00 | 0.00 | 0.00 | 99 | 1026.1 |
| 20260505014748 | 8 | 272 | 3.2 | 0.0 | 0.00 | 0.00 | 0.00 | 99 | 1026.1 |
| 20260505013748 | 8 | 147 | 0.0 | 0.0 | 0.00 | 0.00 | 0.00 | 99 | 1026.4 |
| 20260505012748 | 8 | 140 | 0.0 | 0.0 | 0.00 | 0.00 | 0.00 | 99 | 1026.6 |
| 20260505011747 | 8 | 269 | 0.0 | 0.0 | 0.00 | 0.00 | 0.00 | 99 | 1026.7 |
| 20260505010748 | 8 | 175 | 3.2 | 0.0 | 0.00 | 0.00 | 0.00 | 98 | 1027.0 |
| 20260505005748 | 8 | 115 | 4.8 | 0.0 | 0.00 | 0.00 | 0.00 | 98 | 1026.8 |
| 20260505003748 | 9 | 140 | 0.0 | 0.0 | 0.00 | 0.00 | 0.00 | 98 | 1027.0 |
| 20260505002747 | 9 | 283 | 0.0 | 0.0 | 0.00 | 0.00 | 0.00 | 98 | 1027.4 |
| 20260505001747 | 9 | 357 | 4.8 | 0.0 | 0.00 | 0.00 | 0.00 | 98 | 1027.4 |
| 20260505000747 | 9 | 41 | 3.2 | 0.0 | 0.00 | 0.00 | 0.00 | 98 | 1027.5 |
| 20260504235748 | 10 | 346 | 4.8 | 0.0 | 0.00 | 0.00 | 0.00 | 98 | 1027.8 |
| 20260504234748 | 10 | 280 | 3.2 | 0.0 | 0.00 | 0.00 | 0.00 | 98 | 1027.5 |
| 20260504233748 | 10 | 136 | 0.0 | 0.0 | 0.00 | 0.00 | 0.00 | 98 | 1028.1 |
| 20260504232748 | 10 | 115 | 4.8 | 0.0 | 0.00 | 0.00 | 0.00 | 98 | 1028.0 |
| 20260504231747 | 10 | 160 | 8.0 | 0.0 | 0.00 | 0.00 | 0.00 | 97 | 1028.3 |
| 20260504230747 | 10 | 122 | 3.2 | 0.0 | 0.00 | 0.00 | 0.00 | 97 | 1028.3 |
| 20260504225748 | 10 | 135 | 0.0 | 0.0 | 0.00 | 0.00 | 0.00 | 97 | 1028.2 |
| 20260504224747 | 10 | 102 | 0.0 | 0.0 | 0.00 | 0.00 | 0.00 | 97 | 1028.3 |
| 20260504223748 | 10 | 106 | 3.2 | 0.0 | 0.00 | 0.00 | 0.00 | 97 | 1028.7 |
| 20260504222748 | 10 | 155 | 1.6 | 0.0 | 0.00 | 0.00 | 0.00 | 96 | 1028.7 |
| 20260504221749 | 10 | 130 | 0.0 | 0.0 | 0.00 | 0.00 | 0.00 | 96 | 1028.8 |
| 20260504220748 | 10 | 293 | 0.0 | 0.0 | 0.00 | 0.00 | 0.00 | 96 | 1028.7 |
| 20260504215748 | 10 | 150 | 0.0 | 0.0 | 0.00 | 0.00 | 0.00 | 96 | 1029.1 |
| 20260504214749 | 10 | 117 | 9.7 | 0.0 | 0.00 | 0.00 | 0.00 | 95 | 1029.1 |
| 20260504213749 | 10 | 129 | 3.2 | 0.0 | 0.00 | 0.00 | 0.00 | 95 | 1029.1 |
| 20260504212748 | 10 | 315 | 0.0 | 0.0 | 0.00 | 0.00 | 0.00 | 95 | 1029.3 |
| 20260504211749 | 10 | 283 | 3.2 | 0.0 | 0.00 | 0.00 | 0.00 | 94 | 1029.6 |
| 20260504210748 | 10 | 290 | 0.0 | 0.0 | 0.00 | 0.00 | 0.00 | 94 | 1029.5 |
| 20260504205747 | 10 | 277 | 4.8 | 0.0 | 0.00 | 0.00 | 0.00 | 92 | 1029.4 |
| 20260504203748 | 10 | 73 | 3.2 | 0.0 | 0.00 | 0.00 | 0.00 | 91 | 1029.2 |
| 20260504202748 | 10 | 254 | 0.0 | 0.0 | 0.00 | 0.00 | 0.00 | 91 | 1029.5 |
| 20260504201748 | 10 | 285 | 6.4 | 0.0 | 0.00 | 0.00 | 0.00 | 89 | 1029.4 |
| 20260504200748 | 11 | 237 | 0.0 | 0.0 | 0.00 | 0.00 | 0.00 | 87 | 1029.2 |
| 20260504195749 | 11 | 53 | 0.0 | 0.0 | 0.00 | 0.00 | 0.00 | 85 | 1029.2 |